星链-4384 (STARLINK-4384 )

导读

STARLINK-4384是美国太空探索技术公司SpaceX星链星座的一员,于2022年7月22日发射入轨。它属于星链低轨互联网通信卫星,运行在近地轨道,搭载Ku/Ka波段通信载荷与霍尔推进器,具备自主避撞能力,服务全球高速卫星互联网接入,是星链万颗低轨星座组网进程中的常规组网卫星,设计寿命约5-7年,退役后会主动离轨再入大气层销毁。

Basic Information
目录编号:
53218
目录名称:
STARLINK-4384
国际标识:
2022-084AF
轨道中心:
EARTH
卫星名称:
星链-4384
卫星全名:
星链-4384 (STARLINK-4384 )
卫星状态:
在轨 (已飞行1512 天)
发射日期:
2022-07-22 UTC
国别 :
美国 (US)
星等 :
--
This satellite is enrolled in the Space Conjunction Data Service (SCDS) and the current flight risk assessment level is: High Risk
Orbit Information
数据来源 国际轨道数据
星历时间: 2026-09-11T08:00:04+0800
8小时前
查看轨道信息
半长轴: 6868.121km
偏心率: 0.0001559
轨道倾角: 97.286°
近地点辐角 86.108°
升交点赤经 309.873°
平近点角 44.925°
近地点: 488.913km
远地点: 491.055km
周期: 94.410分钟
每日圈数: 15.25267
Detailed Information
固有亮度:
5
最大亮度:
2.5
卫星平台:
Starlink v1.5
覆盖范围:
全球
运营商:
太空探索技术公司
运营商所在国:
美国
制造商(研发单位):
太空探索技术公司
制造商所在国:
美国
使用方式:
暂无
Satellite Introduction
星链(Starlink)计划是由太空探索技术公司(SpaceX)提出的一个巨型低轨卫星互联网星座项目,计划在2019年至2024年间在太空搭建由约1.2万颗卫星组成的“星链”网络,其中1584颗将部署在地球上空550千米处的近地轨道,并从2020年开始工作。该卫星仍在工作。
2D Orbit Map
3D Orbit Map
Orbit Altitude Analysis Chart
Orbit Inclination Analysis Chart
Orbit Comprehensive Analysis Chart
View Comprehensive Chart
Conjunction Data List
Event ID Objects TCA Miss Dist (km) Collision Risk Probability Collision Risk Index (CRI) Action
CDM_260913-112305-321806-196721
2026-09-13T
11:23:07+0000
0.986 km
远距离
2.591243E-5 中风险 0.63
CDM_260913-111905-321806-763121
2026-09-13T
11:19:11+0000
1.018 km
极远距离
2.459921E-5 中风险 0.63
CDM_260911-215105-321806-268221
2026-09-11T
21:51:00+0000
0.884 km
远距离
1.365072E-5 中风险 0.58
CDM_260912-224705-321806-274221
2026-09-12T
22:47:17+0000
1.335 km
极远距离
9.323299E-6 低风险 0.54
CDM_260913-064005-321806-793421
2026-09-13T
06:40:51+0000
1.310 km
极远距离
9.117493E-6 低风险 0.54
CDM_260913-191305-321805-610721
2026-09-13T
19:13:29+0000
1.429 km
极远距离
7.384589E-6 低风险 0.52
CDM_260913-084005-321805-753021
2026-09-13T
08:40:23+0000
1.362 km
极远距离
7.064025E-6 低风险 0.52
CDM_260913-224905-321805-849521
2026-09-13T
22:49:21+0000
1.730 km
极远距离
3.984144E-6 低风险 0.47
CDM_260913-125505-321806-274221
2026-09-13T
12:55:40+0000
1.759 km
极远距离
3.867061E-6 低风险 0.47
CDM_260913-191305-321805-878921
2026-09-13T
19:13:48+0000
1.896 km
极远距离
3.079437E-6 低风险 0.45
Miss Distance Evolution Trend with All Objects
Collision Probability Evolution Trend with All Objects